Погода в Каргополе

Погода в Каргополе : погода сейчас, прогноз погоды и архив. Всё, что Вы хотите узнать о погоде в Каргополе!

Хотите узнать прогноз погоды в Каргополе? Тогда Вам сюда: Погода в Каргополе

Поиск расширенной информации на нашем сайте:

Другие новости

Новости СМИ2

Главная страница сайта

Новости сайта

03.07.2017

Напоминаем, что на нашем специализированном сайте Метеоцентр.Азия вы можете получить высокодетализированные автоматические прогнозы погоды по пунктам России, СНГ и мира в авиационном формате (включающие направление и скорость ветра, видимость, явления погоды, количество и форму облачности, нижнюю и верхнюю границу облачности).


Погода в Каргополе - сегодня

Время (UTC), дата Ветер
(°,м/с) 
Видим.   Явления Облачность Т
(°С)
Тd
(°С)
f(%) Тe
(°С)
Pmin
(гПа)
dP
(гПа)
Po
(мм)
O2
(г/м3)
Тmin Tmax R s Состояние
почвы
09 18.07.18 030 (СВ) 20000 м    1/1 1000 м 
[Cu med, cong]
+24.2 +13.4 51 +30  1016.6  -0.8  752  276           
12 18.07.18 020 (С) 3{10}  20000 м    1/1 1000 м 
[Cu med, cong]
+25.3 +10.7 40 +27  1015.8  -0.8  751  275           
18 18.07.18 030 (СВ) 20000 м    3/1 2000 м средняя, верхняя 
[Ac cuf|Cs]
+21.8 +13.1 58 +27  1015.7  0.2  751  278           
21 18.07.18 020 (С) 20000 м    3/0 верхняя 
[Ci fib]
+17.7 +12.2 70 +23  1016.5  0.5  751  282           
00 19.07.18 020 (С) 20000 м    ясно 
+14.8 +11.3 80 +19  1017  0.4  752  285           
03 19.07.18 030 (СВ) 20000 м    3/0 верхняя 
[Cs]
+15.8 +11.5 76 +20  1016.8  0.1  751  284  +14        сухая 
06 19.07.18 030 (СВ) 20000 м    ясно 
+21.1 +12.4 58 +26  1016  -0.5  751  279           
09 19.07.18 040 (СВ) 3{11}  20000 м    ясно 
+24.9 +12.2 45 +29  1015.4  -0.5  751  275           
12 19.07.18 040 (СВ) 4{11}  20000 м    ясно 
+27 +12.8 41 +32  1014.6  -0.6  750  273           
18 19.07.18 040 (СВ) 20000 м    ясно 
+23.5 +13.9 55 +30  1014.7  0.1  750  276           
21 19.07.18 040 (СВ) 20000 м    3/0 верхняя 
[Ci fib]
+20.3 +13.7 66 +27  1014.9  750  279           
00 20.07.18 020 (С) 20000 м    ясно 
+17.9 +13.3 74 +25  1015.1  0.1  750  281           
03 20.07.18 040 (СВ) 20000 м    1/0 верхняя 
[Cc]
+19.1 +14.2 73 +27  1014.8  -0.2  750  280  +17.2        сухая 
06 20.07.18 070 (В) 20000 м    10/0 средняя, верхняя 
[As op|Ci sp]
+21.9 +16 69 +32  1014.6  0.1  750  276           
09 20.07.18 080 (В) 3{10}  20000 м    10/5 1000 м верхняя 
[Cu med, cong|Ci sp]
+26.2 +16 53 +37  1014.1  -0.3  750  272           
18 20.07.18 060 (СВ) 20000 м  {ливн. осадки}  9/9 1000 м 
[Sc]
+23.1 +16 64 +34  1013.9  -0.1  750  275           
21 20.07.18 090 (В) 20000 м    3/3 1000 м 
[Sc]
+21.2 +15.9 72 +31  1014.4  0.4  750  277           
00 21.07.18 100 (В) 20000 м    3/3 1000 м 
[Sc]
+19.1 +15.2 78 +30  1014.3  -0.2  750  279           
03 21.07.18 100 (В) 20000 м    3/3 1000 м 
[Sc]
+19.9 +15.3 75 +30  1014.5  0.2  750  278  +18.4        сухая 
06 21.07.18 110 (В) 20000 м    6/3 1000 м средняя, верхняя 
[Sc|Ac cast|Cc]
+23.5 +16.4 64 +35  1014.3  750  275           
12 21.07.18 110 (В) 2{10}  20000 м    8/8 1000 м верхняя 
[Cu med, cong|Ci sp]
+25.7 +13.7 47 +32  1013.4  -0.4  749  273           
18 21.07.18 120 (ЮВ) 20000 м    8/8 1500 м 
[Sc]
+23.5 +13.8 54 +30  1013.3  0.5  749  275           
21 21.07.18 130 (ЮВ) 20000 м    9/9 1000 м 
[Sc]
+22 +13.5 59 +28  1013.9  0.5  749  277           
00 22.07.18 110 (В) 20000 м    6/3 1000 м средняя 
[Sc|Ac lent]
+19.1 +14.2 73 +28  1014.1  0.1  750  279           
03 22.07.18 140 (ЮВ) 20000 м    4/0 средняя, верхняя 
[Ac lent|Ci fib]
+19.2 +14.5 74 +28  1014.9  0.8  750  279  +18.1        сухая 
Время (UTC), дата Ветер
(°,м/с) 
Видим.   Явления Облачность Т
(°С)
Тd
(°С)
f(%) Тe
(°С)
Pmin
(гПа)
dP
(гПа)
Po
(мм)
O2
(г/м3)
Тmin Tmax R s Состояние
почвы

Для получения пояснительной информации подведите курсор к названию столбца.

ПОГОДА в Каргополе - архив

Всё, что Вы хотите узнать о погоде в Каргополе - удобно и подробно!

Выберите нужную дату (начиная с 1 января 2015* года) и нажмите кнопку "Найти".
Будут отображены архивные сводки погоды по пункту Каргополь, начиная с указанной даты.


Отображать данные в формате CSV (для использования в таблицах Excel)


Внимание! Наш архив погоды предназначен исключительно для личного некоммерческого использования в познавательных целях. Если Вам необходимы официальные справки о состоянии погоды (для производственных, юридических, коммерческих и т.п. целей), обращайтесь в органы Росгидромета.

*Примечание: данная дата относится к архиву по метеостанциям СССР (Россия, СНГ, Балтия).
Архив по метеостанциям Зарубежной Европы и Азии (кроме Китая) хранится 10 дней, по другим регионам земного шара (Китай, Африка, Америка, Австралия, Океания) - 1 день.

Каргополь - район местоположения метеостанции


Название, широта, долгота, высота метеостанции:
Каргополь 61.5°ш. 38.9°д. 126 м над ур. моря [Российская Федерация]

Дополнительная информация

В oтличие oт бoльшинства пoгoдных сайтoв мы публикуем пoдрoбную метеoинфoрмацию в детальнoм прoфессиoнальнoм фoрмате.

Характеристики температуры и влажнoсти вoздуха измеряются на высoте 2 м в тени вдали oт зданий и деревьев.
Скoрoсть ветра измеряется на высoте 10 м (на урoвне рoста челoвека скoрoсть ветра ниже в 1.5-2 раза). Если метеoстанция нахoдится в гoрoде или в лесу, тo скoрoсть ветра занижена на 2-4 м/с пo сравнению с oткрытым местoм. Скoрoсть ветра над акватoриями крупных рек и oзёр, а также на вершинах хoлмoв на 2-5 м/с выше, чем в oбычных услoвиях.
Атмoсфернoе давление в разных тoчках местнoсти мoжет значительнo oтличаться oт давления на метеoстанции, в зависимoсти oт услoвий рельефа (при пoдъёме на 10 м давление пoнижается примернo на 1 мм рт.ст.).